EW1135 Weather Reports


Display with metric or nautical units.
time (UTC)temp
F
wind
direction
speed
MPH
gust
MPH
rain 1hr
in
rain 24hr
in
rain mn
in
humidity
%
barometer
mb
20260905080101 57 215 3.0 0.0 0.00 0.00 0.00 90 1013.9
20260905074606 57 192 3.0 0.0 0.00 0.00 0.00 90 1014.0
20260905073159 57 194 1.0 0.0 0.00 0.00 0.00 90 1014.0
20260905071541 57 339 0.0 0.0 0.00 0.00 0.00 90 1013.7
20260905070038 57 339 0.0 0.0 0.00 0.00 0.00 89 1013.6
20260905064519 57 339 0.0 0.0 0.00 0.00 0.96 90 1013.5
20260905063018 57 339 0.0 0.0 0.00 0.00 0.96 90 1013.4
20260905061507 57 337 2.0 0.0 0.00 0.00 0.96 90 1013.4
20260905060007 57 11 0.0 0.0 0.00 0.00 0.96 89 1013.3
20260905054506 57 11 1.0 0.0 0.00 0.00 0.96 89 1013.5
20260905053006 57 11 3.0 0.0 0.00 0.00 0.96 89 1013.4
20260905051510 57 40 2.0 0.0 0.00 0.00 0.96 89 1013.3
20260905050002 57 108 6.0 0.0 0.00 0.00 0.96 89 1013.1
20260905044503 57 148 4.0 0.0 0.00 0.00 0.96 89 1013.0
20260905043002 57 65 0.0 0.0 0.00 0.00 0.96 89 1013.1
20260905041549 57 47 1.0 0.0 0.00 0.00 0.96 89 1013.0
20260905040053 58 40 2.0 0.0 0.00 0.00 0.96 89 1012.8
20260905034547 57 53 2.0 0.0 0.00 0.00 0.96 88 1012.6
20260905033050 58 69 2.0 0.0 0.00 0.00 0.96 88 1012.4
20260905031550 58 65 5.0 0.0 0.00 0.00 0.96 88 1012.3
20260905030044 58 65 7.0 0.0 0.00 0.00 0.96 88 1012.1
20260905024542 58 46 6.0 0.0 0.00 0.00 0.96 87 1012.0
20260905023042 59 79 6.0 0.0 0.00 0.00 0.96 87 1012.1
20260905021528 59 58 8.0 0.0 0.00 0.00 0.96 87 1012.0
20260905020028 59 15 2.0 0.0 0.00 0.00 0.96 86 1011.9
20260905014526 60 283 2.0 0.0 0.00 0.00 0.96 86 1011.8
20260905013026 60 234 1.0 0.0 0.00 0.00 0.96 87 1011.7
20260905011528 60 196 2.0 0.0 0.00 0.00 0.96 87 1011.7
20260905010027 60 254 5.0 0.0 0.00 0.00 0.96 87 1011.5
20260905004523 60 243 5.0 0.0 0.00 0.00 0.96 87 1011.3
20260905003029 60 239 8.0 0.0 0.00 0.00 0.96 87 1011.2
20260905001511 61 235 7.0 0.0 0.00 0.00 0.96 87 1011.2
20260905000009 61 199 10.0 0.0 0.00 0.00 0.96 87 1011.1
20260904234506 61 237 17.0 0.0 0.00 0.00 0.96 88 1011.0
20260904233006 61 237 15.0 0.0 0.00 0.00 0.96 88 1010.9
20260904231503 61 241 15.0 0.0 0.00 0.00 0.96 89 1010.7
20260904230009 61 242 15.0 0.0 0.00 0.00 0.96 89 1010.7
20260904224504 61 237 15.0 0.0 0.00 0.00 0.96 89 1010.7
20260904223001 60 242 13.0 0.0 0.00 0.00 0.96 89 1010.8
20260904221545 61 254 8.0 0.0 0.00 0.00 0.96 90 1010.6
20260904220055 60 238 10.0 0.0 0.00 0.00 0.96 89 1010.6
20260904214533 60 157 7.0 0.0 0.00 0.00 0.95 89 1010.6
20260904213030 60 119 8.0 0.0 0.00 0.00 0.95 90 1010.4
20260904211528 59 169 5.0 0.0 0.00 0.00 0.95 90 1010.3
20260904210031 59 249 12.0 0.0 0.00 0.00 0.95 90 1010.2
20260904204527 60 237 8.0 0.0 0.00 0.00 0.95 90 1010.2
20260904203027 61 160 2.0 0.0 0.00 0.00 0.95 91 1010.2
20260904201523 59 180 4.0 0.0 0.00 0.00 0.95 90 1010.1
20260904200044 59 223 6.0 0.0 0.00 0.00 0.95 90 1010.2
20260904194503 59 175 6.0 0.0 0.00 0.00 0.95 90 1010.1
20260904193001 58 187 4.0 0.0 0.00 0.00 0.95 90 1009.9
20260904191549 58 184 2.0 0.0 0.00 0.00 0.94 90 1009.9
20260904190049 58 203 4.0 0.0 0.00 0.00 0.94 90 1009.9
20260904184606 58 139 5.0 0.0 0.00 0.00 0.94 90 1009.7
20260904183045 57 133 6.0 0.0 0.00 0.00 0.94 90 1009.5
20260904181543 57 140 5.0 0.0 0.00 0.00 0.94 90 1009.6
20260904180041 57 165 5.0 0.0 0.00 0.00 0.94 90 1009.3
20260904174609 56 133 8.0 0.0 0.00 0.00 0.94 90 1008.9
20260904173042 56 167 9.0 0.0 0.00 0.00 0.94 90 1008.5
20260904171535 56 173 9.0 0.0 0.00 0.00 0.94 90 1008.6
20260904170038 56 150 8.0 0.0 0.00 0.00 0.92 90 1008.6
20260904164519 56 153 8.0 0.0 0.00 0.00 0.89 90 1008.4
20260904163015 56 140 7.0 0.0 0.00 0.00 0.86 90 1008.4
20260904161518 56 161 5.0 0.0 0.00 0.00 0.85 90 1008.4
20260904160013 56 204 6.0 0.0 0.00 0.00 0.81 90 1008.4
20260904154511 56 150 6.0 0.0 0.00 0.00 0.81 90 1008.2
20260904153011 56 136 7.0 0.0 0.00 0.00 0.81 90 1008.1
20260904151506 56 130 6.0 0.0 0.00 0.00 0.79 90 1007.9
20260904150048 56 173 7.0 0.0 0.00 0.00 0.77 90 1007.8
20260904144545 57 185 9.0 0.0 0.00 0.00 0.76 90 1007.6
20260904143032 57 237 9.0 0.0 0.00 0.00 0.75 90 1007.3
20260904141530 56 185 8.0 0.0 0.00 0.00 0.75 90 1007.0
20260904140027 56 225 11.0 0.0 0.00 0.00 0.75 89 1006.8
20260904134525 57 219 16.0 0.0 0.00 0.00 0.73 90 1006.7
20260904133025 57 208 16.0 0.0 0.00 0.00 0.73 90 1006.4
20260904131521 57 206 16.0 0.0 0.00 0.00 0.72 90 1006.1
20260904130022 57 207 15.0 0.0 0.00 0.00 0.68 90 1006.1
20260904124525 57 198 14.0 0.0 0.00 0.00 0.60 90 1006.0
20260904123008 57 217 15.0 0.0 0.00 0.00 0.60 89 1006.0
20260904121506 57 166 14.0 0.0 0.00 0.00 0.60 90 1005.8
20260904120004 56 200 15.0 0.0 0.00 0.00 0.60 89 1005.7
20260904114501 56 175 15.0 0.0 0.00 0.00 0.59 89 1005.5
20260904113059 55 115 11.0 0.0 0.00 0.00 0.54 89 1005.3
20260904111558 55 166 12.0 0.0 0.00 0.00 0.34 89 1005.2
20260904110057 55 157 11.0 0.0 0.00 0.00 0.28 89 1005.0
20260904104556 55 129 7.0 0.0 0.00 0.00 0.24 89 1005.0
20260904103044 55 174 8.0 0.0 0.00 0.00 0.13 89 1005.3
20260904101542 55 162 10.0 0.0 0.00 0.00 0.12 89 1005.1
20260904100045 55 128 12.0 0.0 0.00 0.00 0.11 89 1005.1
20260904094539 55 127 9.0 0.0 0.00 0.00 0.10 89 1005.3
20260904093055 55 175 7.0 0.0 0.00 0.00 0.04 88 1005.5
20260904091537 55 189 9.0 0.0 0.00 0.00 0.02 88 1005.5
20260904090040 55 137 8.0 0.0 0.00 0.00 0.02 88 1005.6
20260904084533 55 163 9.0 0.0 0.00 0.00 0.02 88 1005.6
20260904083021 55 133 6.0 0.0 0.00 0.00 0.01 88 1005.6
20260904081519 55 158 8.0 0.0 0.00 0.00 0.01 88 1005.6